Time,TemperatureF,DewpointF,PressureIn,WindDirection,WindDirectionDegrees,WindSpeedMPH,WindSpeedGustMPH,Humidity,HourlyPrecipIn,Conditions,Clouds,dailyrainin,SoftwareType,DateUTC
2013-07-20 00:04:00,78.7,42.8,29.87,SSW,192,0.0,0.0,28,0.00,CLR,,0.00,WeatherDisplay:10.37,2013-07-20 07:04:00,
2013-07-20 00:09:00,78.7,42.8,29.87,SSW,192,0.0,0.0,28,0.00,CLR,,0.00,WeatherDisplay:10.37,2013-07-20 07:09:00,
2013-07-20 00:14:00,78.7,42.8,29.87,SSW,192,4.0,4.0,28,0.00,CLR,,0.00,WeatherDisplay:10.37,2013-07-20 07:14:00,
2013-07-20 00:19:00,78.7,42.8,29.87,SSW,192,3.5,3.5,28,0.00,CLR,,0.00,WeatherDisplay:10.37,2013-07-20 07:19:00,
2013-07-20 00:24:00,78.4,42.6,29.87,SSW,192,0.0,0.0,28,0.00,CLR,,0.00,WeatherDisplay:10.37,2013-07-20 07:24:00,
2013-07-20 00:29:00,78.1,42.3,29.87,SSW,192,0.0,0.0,28,0.00,CLR,,0.00,WeatherDisplay:10.37,2013-07-20 07:29:00,
2013-07-20 00:34:00,77.6,41.9,29.87,SSW,192,0.0,0.0,28,0.00,CLR,,0.00,WeatherDisplay:10.37,2013-07-20 07:34:00,
2013-07-20 00:39:00,77.5,42.7,29.87,SSW,192,0.0,0.0,29,0.00,CLR,,0.00,WeatherDisplay:10.37,2013-07-20 07:39:00,
2013-07-20 00:44:00,77.6,42.8,29.87,SSW,192,0.0,0.0,29,0.00,CLR,,0.00,WeatherDisplay:10.37,2013-07-20 07:44:00,
2013-07-20 00:49:00,77.4,42.6,29.86,SSW,192,0.0,0.0,29,0.00,CLR,,0.00,WeatherDisplay:10.37,2013-07-20 07:49:00,
2013-07-20 00:54:00,77.2,42.5,29.86,SSW,192,0.0,0.0,29,0.00,CLR,,0.00,WeatherDisplay:10.37,2013-07-20 07:54:00,
2013-07-20 00:59:00,77.1,42.4,29.86,SSW,192,3.5,3.5,29,0.00,CLR,,0.00,WeatherDisplay:10.37,2013-07-20 07:59:00,
2013-07-20 01:00:00,77.1,42.4,29.86,SSW,192,3.5,3.5,29,0.00,CLR,,0.00,WeatherDisplay:10.37,2013-07-20 08:00:00,
2013-07-20 01:05:00,76.9,42.2,29.86,SSW,192,0.0,0.0,29,0.00,CLR,,0.00,WeatherDisplay:10.37,2013-07-20 08:05:00,
2013-07-20 01:10:00,76.7,42.9,29.86,SSW,192,0.0,0.0,30,0.00,CLR,,0.00,WeatherDisplay:10.37,2013-07-20 08:10:00,
2013-07-20 01:15:00,76.7,42.9,29.86,SSW,192,0.0,0.0,30,0.00,CLR,,0.00,WeatherDisplay:10.37,2013-07-20 08:15:00,
2013-07-20 01:20:00,76.6,42.8,29.86,SSW,192,0.0,0.0,30,0.00,CLR,,0.00,WeatherDisplay:10.37,2013-07-20 08:20:00,
2013-07-20 01:25:00,76.5,42.7,29.86,SSW,192,0.0,0.0,30,0.00,CLR,,0.00,WeatherDisplay:10.37,2013-07-20 08:25:00,
2013-07-20 01:30:00,76.4,42.7,29.86,SSW,192,0.0,0.0,30,0.00,CLR,,0.00,WeatherDisplay:10.37,2013-07-20 08:30:00,
2013-07-20 01:35:00,76.2,42.5,29.86,SSW,192,0.0,0.0,30,0.00,CLR,,0.00,WeatherDisplay:10.37,2013-07-20 08:35:00,
2013-07-20 01:40:00,75.9,43.1,29.86,SSW,192,3.5,3.5,31,0.00,CLR,,0.00,WeatherDisplay:10.37,2013-07-20 08:40:00,
2013-07-20 01:45:00,75.7,42.9,29.86,SSW,192,0.0,0.0,31,0.00,CLR,,0.00,WeatherDisplay:10.37,2013-07-20 08:45:00,
2013-07-20 01:50:00,75.6,42.8,29.87,SSW,192,3.5,3.5,31,0.00,CLR,,0.00,WeatherDisplay:10.37,2013-07-20 08:50:00,
2013-07-20 01:55:00,75.5,43.6,29.86,SSW,192,0.0,0.0,32,0.00,CLR,,0.00,WeatherDisplay:10.37,2013-07-20 08:55:00,
2013-07-20 02:00:00,75.3,43.4,29.86,SSW,192,0.0,0.0,32,0.00,CLR,,0.00,WeatherDisplay:10.37,2013-07-20 09:00:00,
2013-07-20 02:05:00,75.1,44.0,29.87,SSW,192,4.0,4.0,33,0.00,CLR,,0.00,WeatherDisplay:10.37,2013-07-20 09:05:00,
2013-07-20 02:10:00,74.8,43.0,29.87,SSW,192,3.5,3.5,32,0.00,CLR,,0.00,WeatherDisplay:10.37,2013-07-20 09:10:00,
2013-07-20 02:15:00,74.6,42.8,29.87,SSW,192,3.5,3.5,32,0.00,CLR,,0.00,WeatherDisplay:10.37,2013-07-20 09:15:00,
2013-07-20 02:20:00,74.4,43.4,29.87,SSW,192,3.5,3.5,33,0.00,CLR,,0.00,WeatherDisplay:10.37,2013-07-20 09:20:00,
2013-07-20 02:25:00,74.4,43.4,29.87,SSW,192,2.3,2.3,33,0.00,CLR,,0.00,WeatherDisplay:10.37,2013-07-20 09:25:00,
2013-07-20 02:30:00,74.2,43.2,29.87,SSW,192,2.3,2.3,33,0.00,CLR,,0.00,WeatherDisplay:10.37,2013-07-20 09:30:00,
2013-07-20 02:35:00,74.1,43.1,29.88,SSW,192,3.5,3.5,33,0.00,CLR,,0.00,WeatherDisplay:10.37,2013-07-20 09:35:00,
2013-07-20 02:40:00,74.2,42.4,29.88,SSW,192,3.5,3.5,32,0.00,CLR,,0.00,WeatherDisplay:10.37,2013-07-20 09:40:00,
2013-07-20 02:45:00,74.4,42.6,29.88,SSW,192,2.3,2.3,32,0.00,CLR,,0.00,WeatherDisplay:10.37,2013-07-20 09:45:00,
2013-07-20 02:50:00,74.4,42.6,29.88,SSW,192,3.0,3.0,32,0.00,CLR,,0.00,WeatherDisplay:10.37,2013-07-20 09:50:00,
2013-07-20 02:55:00,74.7,42.0,29.88,SSW,192,3.5,3.5,31,0.00,CLR,,0.00,WeatherDisplay:10.37,2013-07-20 09:55:00,
2013-07-20 03:00:00,74.8,42.1,29.88,SSW,192,0.0,0.0,31,0.00,CLR,,0.00,WeatherDisplay:10.37,2013-07-20 10:00:00,
2013-07-20 03:05:00,74.9,42.2,29.88,SSW,192,0.0,0.0,31,0.00,CLR,,0.00,WeatherDisplay:10.37,2013-07-20 10:05:00,
2013-07-20 03:10:00,74.8,43.0,29.88,SSW,192,3.5,3.5,32,0.00,CLR,,0.00,WeatherDisplay:10.37,2013-07-20 10:10:00,
2013-07-20 03:15:00,74.4,42.6,29.88,SSW,192,3.5,3.7,32,0.00,CLR,,0.00,WeatherDisplay:10.37,2013-07-20 10:15:00,
2013-07-20 03:20:00,74.0,43.1,29.88,SSW,192,0.0,0.0,33,0.00,CLR,,0.00,WeatherDisplay:10.37,2013-07-20 10:20:00,
2013-07-20 03:25:00,73.7,43.6,29.89,SSW,192,4.6,4.6,34,0.00,CLR,,0.00,WeatherDisplay:10.37,2013-07-20 10:25:00,
2013-07-20 03:30:00,73.4,44.1,29.88,SSW,192,2.3,2.3,35,0.00,CLR,,0.00,WeatherDisplay:10.37,2013-07-20 10:30:00,
2013-07-20 03:35:00,73.1,43.1,29.88,SSW,192,4.0,4.0,34,0.00,CLR,,0.00,WeatherDisplay:10.37,2013-07-20 10:35:00,
2013-07-20 03:40:00,73.1,43.1,29.88,SSW,192,0.0,0.0,34,0.00,CLR,,0.00,WeatherDisplay:10.37,2013-07-20 10:40:00,
2013-07-20 03:45:00,73.1,43.8,29.88,SSW,192,3.5,3.5,35,0.00,CLR,,0.00,WeatherDisplay:10.37,2013-07-20 10:45:00,
2013-07-20 03:50:00,73.4,43.3,29.88,SSW,192,2.3,2.3,34,0.00,CLR,,0.00,WeatherDisplay:10.37,2013-07-20 10:50:00,
2013-07-20 03:55:00,73.4,43.3,29.87,SSW,192,4.0,4.0,34,0.00,CLR,,0.00,WeatherDisplay:10.37,2013-07-20 10:55:00,
2013-07-20 04:00:00,73.6,43.5,29.87,SSW,192,3.5,3.5,34,0.00,CLR,,0.00,WeatherDisplay:10.37,2013-07-20 11:00:00,
2013-07-20 04:05:00,73.6,44.2,29.87,SSW,192,3.5,3.5,35,0.00,CLR,,0.00,WeatherDisplay:10.37,2013-07-20 11:05:00,
2013-07-20 04:10:00,73.8,44.4,29.87,SSW,192,3.5,3.5,35,0.00,CLR,,0.00,WeatherDisplay:10.37,2013-07-20 11:10:00,
2013-07-20 04:15:00,74.4,44.2,29.86,SSW,192,6.0,6.0,34,0.00,CLR,,0.00,WeatherDisplay:10.37,2013-07-20 11:15:00,
2013-07-20 04:20:00,74.8,43.8,29.86,SSW,192,5.8,5.8,33,0.00,CLR,,0.00,WeatherDisplay:10.37,2013-07-20 11:20:00,
2013-07-20 04:25:00,75.3,43.4,29.86,SSW,192,6.9,6.9,32,0.00,CLR,,0.00,WeatherDisplay:10.37,2013-07-20 11:25:00,
2013-07-20 04:30:00,75.9,43.1,29.86,SSW,192,6.9,6.9,31,0.00,CLR,,0.00,WeatherDisplay:10.37,2013-07-20 11:30:00,
2013-07-20 04:35:00,76.3,43.4,29.86,SSW,192,6.9,6.9,31,0.00,CLR,,0.00,WeatherDisplay:10.37,2013-07-20 11:35:00,
2013-07-20 04:40:00,76.9,43.1,29.86,SSW,192,11.5,11.5,30,0.00,CLR,,0.00,WeatherDisplay:10.37,2013-07-20 11:40:00,
2013-07-20 04:45:00,77.6,42.8,29.85,SSW,192,7.0,7.0,29,0.00,CLR,,0.00,WeatherDisplay:10.37,2013-07-20 11:45:00,
2013-07-20 04:50:00,78.3,43.4,29.85,SSW,192,9.2,9.2,29,0.00,CLR,,0.00,WeatherDisplay:10.37,2013-07-20 11:50:00,
2013-07-20 04:55:00,78.3,42.5,29.85,SSW,192,11.5,11.5,28,0.00,CLR,,0.00,WeatherDisplay:10.37,2013-07-20 11:55:00,
2013-07-20 05:00:00,77.9,42.2,29.85,SSW,192,11.5,11.5,28,0.00,CLR,,0.00,WeatherDisplay:10.37,2013-07-20 12:00:00,
2013-07-20 05:05:00,77.1,42.4,29.84,SSW,192,13.8,13.8,29,0.00,CLR,,0.00,WeatherDisplay:10.37,2013-07-20 12:05:00,
2013-07-20 05:10:00,76.2,41.6,29.84,SSW,192,11.5,11.5,29,0.00,CLR,,0.00,WeatherDisplay:10.37,2013-07-20 12:10:00,
2013-07-20 05:15:00,76.1,42.4,29.84,SSW,192,11.5,11.5,30,0.00,CLR,,0.00,WeatherDisplay:10.37,2013-07-20 12:15:00,
2013-07-20 05:20:00,76.1,42.4,29.84,SSW,192,13.8,13.8,30,0.00,CLR,,0.00,WeatherDisplay:10.37,2013-07-20 12:20:00,
2013-07-20 05:25:00,75.8,43.0,29.84,SSW,192,12.7,12.7,31,0.00,CLR,,0.00,WeatherDisplay:10.37,2013-07-20 12:25:00,
2013-07-20 05:30:00,75.5,42.7,29.84,SSW,192,12.7,12.7,31,0.00,CLR,,0.00,WeatherDisplay:10.37,2013-07-20 12:30:00,
2013-07-20 05:35:00,75.4,42.7,29.84,SSW,192,12.7,12.7,31,0.00,CLR,,0.00,WeatherDisplay:10.37,2013-07-20 12:35:00,
2013-07-20 05:40:00,75.5,42.7,29.84,SSW,192,11.5,11.5,31,0.00,CLR,,0.00,WeatherDisplay:10.37,2013-07-20 12:40:00,
2013-07-20 05:45:00,75.4,42.7,29.83,SSW,192,11.5,11.5,31,0.00,CLR,,0.00,WeatherDisplay:10.37,2013-07-20 12:45:00,
2013-07-20 05:50:00,75.6,43.7,29.83,SSW,192,13.8,13.8,32,0.00,CLR,,0.00,WeatherDisplay:10.37,2013-07-20 12:50:00,
2013-07-20 05:55:00,76.6,42.8,29.83,SSW,192,12.7,12.7,30,0.00,CLR,,0.00,WeatherDisplay:10.37,2013-07-20 12:55:00,
2013-07-20 06:00:00,77.0,43.2,29.83,SSW,192,11.5,11.5,30,0.00,CLR,,0.00,WeatherDisplay:10.37,2013-07-20 13:00:00,
2013-07-20 06:05:00,77.3,43.4,29.82,SSW,192,11.5,11.5,30,0.00,CLR,,0.00,WeatherDisplay:10.37,2013-07-20 13:05:00,
2013-07-20 06:10:00,77.5,43.6,29.82,SSW,192,12.7,12.7,30,0.00,CLR,,0.00,WeatherDisplay:10.37,2013-07-20 13:10:00,
2013-07-20 06:15:00,78.3,43.4,29.83,SSW,192,9.2,9.2,29,0.00,CLR,,0.00,WeatherDisplay:10.37,2013-07-20 13:15:00,
2013-07-20 06:20:00,78.0,44.0,29.83,SSW,192,6.9,6.9,30,0.00,CLR,,0.00,WeatherDisplay:10.37,2013-07-20 13:20:00,
2013-07-20 06:25:00,76.9,43.1,29.83,SSW,192,3.5,3.5,30,0.00,CLR,,0.00,WeatherDisplay:10.37,2013-07-20 13:25:00,
2013-07-20 06:30:00,76.5,42.7,29.83,SSW,192,5.8,5.8,30,0.00,CLR,,0.00,WeatherDisplay:10.37,2013-07-20 13:30:00,
2013-07-20 06:35:00,76.2,42.5,29.83,SSW,192,3.5,3.5,30,0.00,CLR,,0.00,WeatherDisplay:10.37,2013-07-20 13:35:00,
2013-07-20 06:40:00,75.9,43.1,29.85,SSW,192,0.0,0.0,31,0.00,CLR,,0.00,WeatherDisplay:10.37,2013-07-20 13:40:00,
2013-07-20 06:45:00,76.0,43.2,29.86,SSW,192,0.0,0.0,31,0.00,CLR,,0.00,WeatherDisplay:10.37,2013-07-20 13:45:00,
2013-07-20 06:50:00,76.2,43.3,29.86,SSW,192,0.0,0.0,31,0.00,CLR,,0.00,WeatherDisplay:10.37,2013-07-20 13:50:00,
2013-07-20 06:55:00,76.9,43.1,29.87,SSW,192,9.0,9.0,30,0.00,CLR,,0.00,WeatherDisplay:10.37,2013-07-20 13:55:00,
2013-07-20 07:00:00,76.5,43.6,29.86,SSW,192,5.8,5.8,31,0.00,CLR,,0.00,WeatherDisplay:10.37,2013-07-20 14:00:00,
2013-07-20 07:05:00,76.5,43.6,29.87,SSW,192,3.5,3.5,31,0.00,CLR,,0.00,WeatherDisplay:10.37,2013-07-20 14:05:00,
2013-07-20 07:11:00,76.6,44.5,29.87,SSW,192,0.0,0.0,32,0.00,CLR,,0.00,WeatherDisplay:10.37,2013-07-20 14:11:00,
2013-07-20 07:16:00,76.7,43.8,29.87,SSW,192,0.0,0.0,31,0.00,CLR,,0.00,WeatherDisplay:10.37,2013-07-20 14:16:00,
2013-07-20 07:21:00,76.9,44.0,29.87,SSW,192,0.0,0.0,31,0.00,CLR,,0.00,WeatherDisplay:10.37,2013-07-20 14:21:00,
2013-07-20 07:26:00,77.0,44.0,29.88,SSW,192,0.0,0.0,31,0.00,CLR,,0.00,WeatherDisplay:10.37,2013-07-20 14:26:00,
2013-07-20 07:31:00,77.1,44.1,29.88,SSW,192,0.0,0.0,31,0.00,CLR,,0.00,WeatherDisplay:10.37,2013-07-20 14:31:00,
2013-07-20 07:36:00,77.2,44.2,29.88,SSW,192,0.0,0.0,31,0.00,CLR,,0.00,WeatherDisplay:10.37,2013-07-20 14:36:00,
2013-07-20 07:41:00,77.5,43.6,29.88,SSW,192,3.5,3.5,30,0.00,CLR,,0.00,WeatherDisplay:10.37,2013-07-20 14:41:00,
2013-07-20 07:46:00,77.9,44.0,29.88,SSW,192,3.5,3.9,30,0.00,CLR,,0.00,WeatherDisplay:10.37,2013-07-20 14:46:00,
2013-07-20 07:51:00,78.4,44.4,29.88,SSW,192,4.6,4.6,30,0.00,CLR,,0.00,WeatherDisplay:10.37,2013-07-20 14:51:00,
2013-07-20 07:56:00,79.1,45.0,29.88,SSW,192,4.6,4.6,30,0.00,CLR,,0.00,WeatherDisplay:10.37,2013-07-20 14:56:00,
2013-07-20 08:01:00,79.9,44.8,29.88,SSW,192,4.6,4.6,29,0.00,CLR,,0.00,WeatherDisplay:10.37,2013-07-20 15:01:00,
2013-07-20 08:06:00,80.9,44.7,29.89,SSW,192,3.5,3.5,28,0.00,CLR,,0.00,WeatherDisplay:10.37,2013-07-20 15:06:00,
2013-07-20 08:11:00,81.7,45.4,29.89,SSW,192,3.5,3.7,28,0.00,CLR,,0.00,WeatherDisplay:10.37,2013-07-20 15:11:00,
2013-07-20 08:16:00,83.2,45.7,29.89,SSW,192,8.1,8.1,27,0.00,CLR,,0.00,WeatherDisplay:10.37,2013-07-20 15:16:00,
2013-07-20 08:21:00,84.3,45.7,29.89,SSW,192,6.9,6.9,26,0.00,CLR,,0.00,WeatherDisplay:10.37,2013-07-20 15:21:00,
2013-07-20 08:26:00,84.9,46.2,29.89,SSW,192,8.1,8.1,26,0.00,CLR,,0.00,WeatherDisplay:10.37,2013-07-20 15:26:00,
2013-07-20 08:31:00,85.5,45.7,29.89,SSW,192,5.8,5.8,25,0.00,CLR,,0.00,WeatherDisplay:10.37,2013-07-20 15:31:00,
2013-07-20 08:36:00,86.0,46.1,29.89,SSW,192,5.8,5.8,25,0.00,CLR,,0.00,WeatherDisplay:10.37,2013-07-20 15:36:00,
2013-07-20 08:41:00,86.4,46.4,29.89,SSW,192,5.8,5.8,25,0.00,CLR,,0.00,WeatherDisplay:10.37,2013-07-20 15:41:00,
2013-07-20 08:46:00,87.0,45.8,29.89,SSW,192,5.8,5.8,24,0.00,CLR,,0.00,WeatherDisplay:10.37,2013-07-20 15:46:00,
2013-07-20 08:51:00,87.6,46.3,29.89,SSW,192,4.0,4.0,24,0.00,CLR,,0.00,WeatherDisplay:10.37,2013-07-20 15:51:00,
2013-07-20 08:56:00,88.1,46.8,29.89,SSW,192,10.4,10.4,24,0.00,CLR,,0.00,WeatherDisplay:10.37,2013-07-20 15:56:00,
2013-07-20 09:01:00,88.0,45.6,29.89,SSW,192,5.0,5.0,23,0.00,CLR,,0.00,WeatherDisplay:10.37,2013-07-20 16:01:00,
2013-07-20 09:06:00,88.0,46.7,29.89,SSW,192,3.5,3.5,24,0.00,CLR,,0.00,WeatherDisplay:10.37,2013-07-20 16:06:00,
2013-07-20 09:11:00,88.4,47.0,29.89,SSW,192,6.9,6.9,24,0.00,CLR,,0.00,WeatherDisplay:10.37,2013-07-20 16:11:00,
2013-07-20 09:16:00,88.6,47.2,29.89,SSW,192,9.2,9.2,24,0.00,CLR,,0.00,WeatherDisplay:10.37,2013-07-20 16:16:00,
2013-07-20 09:21:00,88.6,46.1,29.89,SSW,192,4.6,4.6,23,0.00,CLR,,0.00,WeatherDisplay:10.37,2013-07-20 16:21:00,
2013-07-20 09:26:00,88.9,46.3,29.89,SSW,192,6.9,6.9,23,0.00,CLR,,0.00,WeatherDisplay:10.37,2013-07-20 16:26:00,
2013-07-20 09:31:00,89.1,46.5,29.89,SSW,192,4.6,4.6,23,0.00,CLR,,0.00,WeatherDisplay:10.37,2013-07-20 16:31:00,
2013-07-20 09:36:00,89.7,47.0,29.89,SSW,192,0.0,1.2,23,0.00,CLR,,0.00,WeatherDisplay:10.37,2013-07-20 16:36:00,
2013-07-20 09:41:00,90.8,47.9,29.89,SSW,192,3.5,3.5,23,0.00,CLR,,0.00,WeatherDisplay:10.37,2013-07-20 16:41:00,
2013-07-20 09:46:00,90.9,48.0,29.88,SSW,192,9.2,9.2,23,0.00,CLR,,0.00,WeatherDisplay:10.37,2013-07-20 16:46:00,
2013-07-20 09:51:00,90.8,46.7,29.89,SSW,192,4.6,4.9,22,0.00,CLR,,0.00,WeatherDisplay:10.37,2013-07-20 16:51:00,
2013-07-20 09:56:00,91.0,46.9,29.89,SSW,192,5.8,5.8,22,0.00,CLR,,0.00,WeatherDisplay:10.37,2013-07-20 16:56:00,
2013-07-20 10:01:00,91.3,47.1,29.89,SSW,192,9.2,9.2,22,0.00,CLR,,0.00,WeatherDisplay:10.37,2013-07-20 17:01:00,
2013-07-20 10:06:00,91.3,47.1,29.88,SSW,192,4.6,4.6,22,0.00,CLR,,0.00,WeatherDisplay:10.37,2013-07-20 17:06:00,
2013-07-20 10:11:00,91.5,46.1,29.89,SSW,192,5.8,5.8,21,0.00,CLR,,0.00,WeatherDisplay:10.37,2013-07-20 17:11:00,
2013-07-20 10:16:00,91.9,46.4,29.89,SSW,192,8.1,8.1,21,0.00,CLR,,0.00,WeatherDisplay:10.37,2013-07-20 17:16:00,
2013-07-20 10:21:00,92.3,45.4,29.89,SSW,192,2.3,2.3,20,0.00,CLR,,0.00,WeatherDisplay:10.37,2013-07-20 17:21:00,
2013-07-20 10:26:00,92.8,45.8,29.89,SSW,192,2.3,0.0,20,0.00,CLR,,0.00,WeatherDisplay:10.37,2013-07-20 17:26:00,
2013-07-20 10:31:00,93.5,45.1,29.88,SSW,192,6.9,6.9,19,0.00,CLR,,0.00,WeatherDisplay:10.37,2013-07-20 17:31:00,
2013-07-20 10:36:00,93.1,46.1,29.88,SSW,192,4.6,4.6,20,0.00,CLR,,0.00,WeatherDisplay:10.37,2013-07-20 17:36:00,
2013-07-20 10:41:00,93.3,44.9,29.88,SSW,192,11.5,11.5,19,0.00,CLR,,0.00,WeatherDisplay:10.37,2013-07-20 17:41:00,
2013-07-20 10:46:00,93.5,45.1,29.88,SSW,192,3.5,3.5,19,0.00,CLR,,0.00,WeatherDisplay:10.37,2013-07-20 17:46:00,
2013-07-20 10:51:00,93.9,45.4,29.88,SSW,192,6.9,6.9,19,0.00,CLR,,0.00,WeatherDisplay:10.37,2013-07-20 17:51:00,
2013-07-20 10:56:00,94.1,45.5,29.88,SSW,192,4.6,4.6,19,0.00,CLR,,0.00,WeatherDisplay:10.37,2013-07-20 17:56:00,
2013-07-20 11:01:00,94.5,45.9,29.88,SSW,192,9.2,9.2,19,0.00,CLR,,0.00,WeatherDisplay:10.37,2013-07-20 18:01:00,
2013-07-20 11:06:00,94.5,44.4,29.88,SSW,192,13.8,13.8,18,0.00,CLR,,0.00,WeatherDisplay:10.37,2013-07-20 18:06:00,
2013-07-20 11:11:00,95.1,46.4,29.88,SSW,192,10.4,10.4,19,0.00,CLR,,0.00,WeatherDisplay:10.37,2013-07-20 18:11:00,
2013-07-20 11:16:00,95.4,45.2,29.88,SSW,192,11.5,11.5,18,0.00,CLR,,0.00,WeatherDisplay:10.37,2013-07-20 18:16:00,
2013-07-20 11:21:00,95.6,45.3,29.88,SSW,192,11.5,11.5,18,0.00,CLR,,0.00,WeatherDisplay:10.37,2013-07-20 18:21:00,
2013-07-20 11:26:00,95.8,45.5,29.88,SSW,192,12.0,12.0,18,0.00,CLR,,0.00,WeatherDisplay:10.37,2013-07-20 18:26:00,
2013-07-20 11:32:00,96.4,46.0,29.87,SSW,192,11.5,11.5,18,0.00,CLR,,0.00,WeatherDisplay:10.37,2013-07-20 18:32:00,
2013-07-20 11:37:00,96.7,46.2,29.87,SSW,192,9.0,9.0,18,0.00,CLR,,0.00,WeatherDisplay:10.37,2013-07-20 18:37:00,
2013-07-20 11:42:00,96.9,46.4,29.87,SSW,192,15.0,15.0,18,0.00,CLR,,0.00,WeatherDisplay:10.37,2013-07-20 18:42:00,
2013-07-20 11:47:00,96.9,46.4,29.87,SSW,192,11.5,11.5,18,0.00,CLR,,0.00,WeatherDisplay:10.37,2013-07-20 18:47:00,
2013-07-20 11:52:00,97.6,47.0,29.87,SSW,192,10.4,10.4,18,0.00,CLR,,0.00,WeatherDisplay:10.37,2013-07-20 18:52:00,
2013-07-20 11:58:00,97.3,46.7,29.87,SSW,192,16.1,16.1,18,0.00,CLR,,0.00,WeatherDisplay:10.37,2013-07-20 18:58:00,
2013-07-20 12:04:00,97.5,46.9,29.87,SSW,192,12.7,12.7,18,0.00,CLR,,0.00,WeatherDisplay:10.37,2013-07-20 19:04:00,
2013-07-20 12:09:00,98.1,47.4,29.87,SSW,192,9.2,9.2,18,0.00,CLR,,0.00,WeatherDisplay:10.37,2013-07-20 19:09:00,
2013-07-20 12:14:00,98.2,45.9,29.86,SSW,192,6.9,6.9,17,0.00,CLR,,0.00,WeatherDisplay:10.37,2013-07-20 19:14:00,
2013-07-20 12:19:00,97.5,45.4,29.86,SSW,192,11.5,11.5,17,0.00,CLR,,0.00,WeatherDisplay:10.37,2013-07-20 19:19:00,
2013-07-20 12:24:00,97.6,45.4,29.86,SSW,192,11.5,11.5,17,0.00,CLR,,0.00,WeatherDisplay:10.37,2013-07-20 19:24:00,
2013-07-20 12:29:00,99.2,45.1,29.86,SSW,192,13.0,13.0,16,0.00,CLR,,0.00,WeatherDisplay:10.37,2013-07-20 19:29:00,
2013-07-20 12:34:00,99.1,45.0,29.85,SSW,192,10.4,10.4,16,0.00,CLR,,0.00,WeatherDisplay:10.37,2013-07-20 19:34:00,
2013-07-20 12:39:00,99.1,45.0,29.85,SSW,192,13.8,13.8,16,0.00,CLR,,0.00,WeatherDisplay:10.37,2013-07-20 19:39:00,
2013-07-20 12:45:00,99.8,45.6,29.85,SSW,192,11.5,11.5,16,0.00,CLR,,0.00,WeatherDisplay:10.37,2013-07-20 19:45:00,
2013-07-20 12:50:00,100.5,46.2,29.85,SSW,192,13.8,13.8,16,0.00,CLR,,0.00,WeatherDisplay:10.37,2013-07-20 19:50:00,
2013-07-20 12:55:00,99.2,46.7,29.85,SSW,192,17.3,17.3,17,0.00,CLR,,0.00,WeatherDisplay:10.37,2013-07-20 19:55:00,
2013-07-20 13:00:00,99.1,46.6,29.85,SSW,192,11.5,11.5,17,0.00,CLR,,0.00,WeatherDisplay:10.37,2013-07-20 20:00:00,
2013-07-20 13:05:00,99.6,47.0,29.85,SSW,192,12.0,12.0,17,0.00,CLR,,0.00,WeatherDisplay:10.37,2013-07-20 20:05:00,
2013-07-20 13:10:00,100.1,47.4,29.85,SSW,192,10.4,10.4,17,0.00,CLR,,0.00,WeatherDisplay:10.37,2013-07-20 20:10:00,
2013-07-20 13:15:00,100.1,49.0,29.85,SSW,192,11.5,11.5,18,0.00,CLR,,0.00,WeatherDisplay:10.37,2013-07-20 20:15:00,
2013-07-20 13:20:00,100.0,47.4,29.84,SSW,192,12.7,12.7,17,0.00,CLR,,0.00,WeatherDisplay:10.37,2013-07-20 20:20:00,
2013-07-20 13:25:00,99.7,48.7,29.84,SSW,192,12.7,12.7,18,0.00,CLR,,0.00,WeatherDisplay:10.37,2013-07-20 20:25:00,
2013-07-20 13:30:00,99.6,48.6,29.84,SSW,192,13.8,13.8,18,0.00,CLR,,0.00,WeatherDisplay:10.37,2013-07-20 20:30:00,
2013-07-20 13:35:00,99.5,48.5,29.84,SSW,192,11.5,11.5,18,0.00,CLR,,0.00,WeatherDisplay:10.37,2013-07-20 20:35:00,
2013-07-20 13:40:00,99.2,48.2,29.84,SSW,192,11.5,11.5,18,0.00,CLR,,0.00,WeatherDisplay:10.37,2013-07-20 20:40:00,
2013-07-20 13:45:00,99.1,48.2,29.84,SSW,192,7.0,7.0,18,0.00,CLR,,0.00,WeatherDisplay:10.37,2013-07-20 20:45:00,
2013-07-20 13:51:00,99.7,48.7,29.84,SSW,192,11.5,11.5,18,0.00,CLR,,0.00,WeatherDisplay:10.37,2013-07-20 20:51:00,
2013-07-20 13:56:00,99.6,50.0,29.84,SSW,192,12.7,12.7,19,0.00,CLR,,0.00,WeatherDisplay:10.37,2013-07-20 20:56:00,
2013-07-20 14:01:00,100.0,51.7,29.83,SSW,192,13.0,13.0,20,0.00,CLR,,0.00,WeatherDisplay:10.37,2013-07-20 21:01:00,
2013-07-20 14:06:00,100.0,50.3,29.83,SSW,192,15.0,15.0,19,0.00,CLR,,0.00,WeatherDisplay:10.37,2013-07-20 21:06:00,
2013-07-20 14:11:00,99.9,51.7,29.83,SSW,192,13.8,13.8,20,0.00,CLR,,0.00,WeatherDisplay:10.37,2013-07-20 21:11:00,
2013-07-20 14:16:00,99.9,51.7,29.83,SSW,192,13.8,13.8,20,0.00,CLR,,0.00,WeatherDisplay:10.37,2013-07-20 21:16:00,
2013-07-20 14:21:00,99.9,51.7,29.84,SSW,192,11.5,11.5,20,0.00,CLR,,0.00,WeatherDisplay:10.37,2013-07-20 21:21:00,
2013-07-20 14:26:00,99.3,53.8,29.83,SSW,192,13.8,13.8,22,0.00,CLR,,0.00,WeatherDisplay:10.37,2013-07-20 21:26:00,
2013-07-20 14:31:00,99.7,54.1,29.83,SSW,192,13.8,13.8,22,0.00,CLR,,0.00,WeatherDisplay:10.37,2013-07-20 21:31:00,
2013-07-20 14:36:00,99.4,55.1,29.83,SSW,192,17.3,17.3,23,0.00,CLR,,0.00,WeatherDisplay:10.37,2013-07-20 21:36:00,
2013-07-20 14:41:00,99.7,55.3,29.84,SSW,192,18.4,18.4,23,0.00,CLR,,0.00,WeatherDisplay:10.37,2013-07-20 21:41:00,
2013-07-20 14:46:00,99.7,56.5,29.84,SSW,192,18.4,18.4,24,0.00,CLR,,0.00,WeatherDisplay:10.37,2013-07-20 21:46:00,
2013-07-20 14:51:00,99.1,57.1,29.84,SSW,192,18.4,18.4,25,0.00,CLR,,0.00,WeatherDisplay:10.37,2013-07-20 21:51:00,
2013-07-20 14:56:00,99.2,56.1,29.83,SSW,192,19.6,19.6,24,0.00,CLR,,0.00,WeatherDisplay:10.37,2013-07-20 21:56:00,
2013-07-20 15:01:00,98.5,56.6,29.83,SSW,192,21.9,21.9,25,0.00,CLR,,0.00,WeatherDisplay:10.37,2013-07-20 22:01:00,
2013-07-20 15:06:00,97.9,56.1,29.83,SSW,192,23.0,23.0,25,0.00,CLR,,0.00,WeatherDisplay:10.37,2013-07-20 22:06:00,
2013-07-20 15:11:00,97.2,55.5,29.83,SSW,192,19.6,19.6,25,0.00,CLR,,0.00,WeatherDisplay:10.37,2013-07-20 22:11:00,
2013-07-20 15:16:00,97.3,55.6,29.83,SSW,192,19.6,19.6,25,0.00,CLR,,0.00,WeatherDisplay:10.37,2013-07-20 22:16:00,
2013-07-20 15:21:00,97.7,55.9,29.83,SSW,192,19.6,19.6,25,0.00,CLR,,0.00,WeatherDisplay:10.37,2013-07-20 22:21:00,
2013-07-20 15:26:00,97.7,57.0,29.83,SSW,192,25.3,25.3,26,0.00,CLR,,0.00,WeatherDisplay:10.37,2013-07-20 22:26:00,
2013-07-20 15:31:00,96.9,56.3,29.83,SSW,192,25.3,25.3,26,0.00,CLR,,0.00,WeatherDisplay:10.37,2013-07-20 22:31:00,
2013-07-20 15:36:00,96.9,57.4,29.83,SSW,192,21.0,21.0,27,0.00,CLR,,0.00,WeatherDisplay:10.37,2013-07-20 22:36:00,
2013-07-20 15:41:00,96.2,57.8,29.83,SSW,192,26.5,26.5,28,0.00,CLR,,0.00,WeatherDisplay:10.37,2013-07-20 22:41:00,
2013-07-20 15:46:00,96.1,58.7,29.83,SSW,192,22.0,22.0,29,0.00,CLR,,0.00,WeatherDisplay:10.37,2013-07-20 22:46:00,
2013-07-20 15:51:00,96.5,59.0,29.82,SSW,192,25.3,25.3,29,0.00,CLR,,0.00,WeatherDisplay:10.37,2013-07-20 22:51:00,
2013-07-20 15:56:00,96.0,57.6,29.83,SSW,192,23.0,23.0,28,0.00,CLR,,0.00,WeatherDisplay:10.37,2013-07-20 22:56:00,
2013-07-20 16:01:00,95.6,58.3,29.82,SSW,192,21.9,21.9,29,0.00,CLR,,0.00,WeatherDisplay:10.37,2013-07-20 23:01:00,
2013-07-20 16:06:00,95.4,57.1,29.82,SSW,192,28.8,28.8,28,0.00,CLR,,0.00,WeatherDisplay:10.37,2013-07-20 23:06:00,
2013-07-20 16:12:00,94.9,57.7,29.82,SSW,192,25.3,25.3,29,0.00,CLR,,0.00,WeatherDisplay:10.37,2013-07-20 23:12:00,
2013-07-20 16:17:00,95.4,57.1,29.82,SSW,193,27.6,27.6,28,0.00,CLR,,0.00,WeatherDisplay:10.37,2013-07-20 23:17:00,
2013-07-20 16:22:00,95.2,57.9,29.82,SSW,192,29.0,29.0,29,0.00,CLR,,0.00,WeatherDisplay:10.37,2013-07-20 23:22:00,
2013-07-20 16:27:00,94.7,58.4,29.82,SSW,193,29.9,29.9,30,0.00,CLR,,0.00,WeatherDisplay:10.37,2013-07-20 23:27:00,
2013-07-20 16:32:00,94.4,59.1,29.81,SSW,192,29.9,29.9,31,0.00,CLR,,0.00,WeatherDisplay:10.37,2013-07-20 23:32:00,
2013-07-20 16:37:00,94.1,58.8,29.82,SSW,193,29.9,29.9,31,0.00,CLR,,0.00,WeatherDisplay:10.37,2013-07-20 23:37:00,
2013-07-20 16:42:00,93.7,59.4,29.82,SSW,193,29.9,29.9,32,0.00,CLR,,0.00,WeatherDisplay:10.37,2013-07-20 23:42:00,
2013-07-20 16:47:00,93.8,59.5,29.81,SSW,192,31.1,31.1,32,0.00,CLR,,0.00,WeatherDisplay:10.37,2013-07-20 23:47:00,
2013-07-20 16:52:00,94.4,60.0,29.81,SSW,193,22.0,22.0,32,0.00,CLR,,0.00,WeatherDisplay:10.37,2013-07-20 23:52:00,
2013-07-20 16:57:00,94.5,60.1,29.81,SSW,193,26.5,26.5,32,0.00,CLR,,0.00,WeatherDisplay:10.37,2013-07-20 23:57:00,
2013-07-20 17:03:00,94.3,59.9,29.81,SSW,192,26.5,26.5,32,0.00,CLR,,0.00,WeatherDisplay:10.37,2013-07-21 00:03:00,
2013-07-20 17:08:00,94.0,58.8,29.81,SSW,192,25.0,25.0,31,0.00,CLR,,0.00,WeatherDisplay:10.37,2013-07-21 00:08:00,
2013-07-20 17:13:00,94.4,59.1,29.81,SSW,193,25.3,25.3,31,0.00,CLR,,0.00,WeatherDisplay:10.37,2013-07-21 00:13:00,
2013-07-20 17:18:00,94.6,59.3,29.81,SSW,193,21.9,21.9,31,0.00,CLR,,0.00,WeatherDisplay:10.37,2013-07-21 00:18:00,
2013-07-20 17:23:00,94.6,59.3,29.80,SSW,192,24.2,24.2,31,0.00,CLR,,0.00,WeatherDisplay:10.37,2013-07-21 00:23:00,
2013-07-20 17:28:00,94.4,60.0,29.81,SSW,193,23.0,23.0,32,0.00,CLR,,0.00,WeatherDisplay:10.37,2013-07-21 00:28:00,
2013-07-20 17:33:00,94.3,59.9,29.81,SSW,193,24.2,24.2,32,0.00,CLR,,0.00,WeatherDisplay:10.37,2013-07-21 00:33:00,
2013-07-20 17:38:00,93.8,59.5,29.81,SSW,192,25.3,25.3,32,0.00,CLR,,0.00,WeatherDisplay:10.37,2013-07-21 00:38:00,
2013-07-20 17:43:00,93.1,59.7,29.81,SSW,193,25.3,25.3,33,0.00,CLR,,0.00,WeatherDisplay:10.37,2013-07-21 00:43:00,
2013-07-20 17:49:00,92.7,60.2,29.81,SSW,192,23.0,23.0,34,0.00,CLR,,0.00,WeatherDisplay:10.37,2013-07-21 00:49:00,
2013-07-20 17:54:00,92.6,60.1,29.81,SSW,193,19.6,19.6,34,0.00,CLR,,0.00,WeatherDisplay:10.37,2013-07-21 00:54:00,
2013-07-20 17:59:00,91.9,60.3,29.80,SSW,193,21.0,21.0,35,0.00,CLR,,0.00,WeatherDisplay:10.37,2013-07-21 00:59:00,
2013-07-20 18:04:00,91.5,60.0,29.80,SSW,193,25.3,25.3,35,0.00,CLR,,0.00,WeatherDisplay:10.37,2013-07-21 01:04:00,
2013-07-20 18:09:00,91.4,59.9,29.80,SSW,192,21.9,21.9,35,0.00,CLR,,0.00,WeatherDisplay:10.37,2013-07-21 01:09:00,
2013-07-20 18:14:00,91.3,60.6,29.80,SSW,193,24.0,24.0,36,0.00,CLR,,0.00,WeatherDisplay:10.37,2013-07-21 01:14:00,
2013-07-20 18:20:00,90.7,60.1,29.80,SSW,193,25.3,25.3,36,0.00,CLR,,0.00,WeatherDisplay:10.37,2013-07-21 01:20:00,
2013-07-20 18:25:00,90.6,60.8,29.80,SSW,193,24.2,24.2,37,0.00,CLR,,0.00,WeatherDisplay:10.37,2013-07-21 01:25:00,
2013-07-20 18:30:00,90.2,60.4,29.80,SSW,193,21.9,21.9,37,0.00,CLR,,0.00,WeatherDisplay:10.37,2013-07-21 01:30:00,
2013-07-20 18:36:00,90.2,59.6,29.80,SSW,193,25.3,25.3,36,0.00,CLR,,0.00,WeatherDisplay:10.37,2013-07-21 01:36:00,
2013-07-20 18:41:00,90.1,60.3,29.80,SSW,193,21.9,21.9,37,0.00,CLR,,0.00,WeatherDisplay:10.37,2013-07-21 01:41:00,
2013-07-20 18:46:00,89.9,60.1,29.80,SSW,192,19.6,19.6,37,0.00,CLR,,0.00,WeatherDisplay:10.37,2013-07-21 01:46:00,
2013-07-20 18:51:00,90.0,60.2,29.80,SSW,193,18.4,18.4,37,0.00,CLR,,0.00,WeatherDisplay:10.37,2013-07-21 01:51:00,
2013-07-20 18:56:00,90.0,59.5,29.80,SSW,193,19.6,19.6,36,0.00,CLR,,0.00,WeatherDisplay:10.37,2013-07-21 01:56:00,
2013-07-20 19:01:00,89.9,59.4,29.80,SSW,193,19.6,19.6,36,0.00,CLR,,0.00,WeatherDisplay:10.37,2013-07-21 02:01:00,
2013-07-20 19:06:00,89.9,57.8,29.80,SSW,193,20.7,20.7,34,0.00,CLR,,0.00,WeatherDisplay:10.37,2013-07-21 02:06:00,
2013-07-20 19:11:00,90.0,57.9,29.80,SSW,193,19.6,19.6,34,0.00,CLR,,0.00,WeatherDisplay:10.37,2013-07-21 02:11:00,
2013-07-20 19:16:00,89.9,57.8,29.80,SSW,192,21.9,21.9,34,0.00,CLR,,0.00,WeatherDisplay:10.37,2013-07-21 02:16:00,
2013-07-20 19:21:00,89.9,56.9,29.80,SSW,193,16.1,16.1,33,0.00,CLR,,0.00,WeatherDisplay:10.37,2013-07-21 02:21:00,
2013-07-20 19:26:00,89.9,56.9,29.80,SSW,193,18.4,18.4,33,0.00,CLR,,0.00,WeatherDisplay:10.37,2013-07-21 02:26:00,
2013-07-20 19:31:00,89.9,56.9,29.80,SSW,193,15.0,15.0,33,0.00,CLR,,0.00,WeatherDisplay:10.37,2013-07-21 02:31:00,
2013-07-20 19:37:00,89.7,57.6,29.80,SSW,192,12.7,12.7,34,0.00,CLR,,0.00,WeatherDisplay:10.37,2013-07-21 02:37:00,
2013-07-20 19:42:00,89.6,57.5,29.80,SSW,193,15.0,15.0,34,0.00,CLR,,0.00,WeatherDisplay:10.37,2013-07-21 02:42:00,
2013-07-20 19:47:00,89.5,57.4,29.80,SSW,193,12.7,12.7,34,0.00,CLR,,0.00,WeatherDisplay:10.37,2013-07-21 02:47:00,
2013-07-20 19:52:00,89.4,57.3,29.80,SSW,192,12.7,12.7,34,0.00,CLR,,0.00,WeatherDisplay:10.37,2013-07-21 02:52:00,
2013-07-20 19:57:00,89.3,57.3,29.80,SSW,192,13.8,13.8,34,0.00,CLR,,0.00,WeatherDisplay:10.37,2013-07-21 02:57:00,
2013-07-20 20:02:00,89.1,57.1,29.81,SSW,193,11.5,11.5,34,0.00,CLR,,0.00,WeatherDisplay:10.37,2013-07-21 03:02:00,
2013-07-20 20:07:00,88.7,57.5,29.81,SSW,193,9.2,9.2,35,0.00,CLR,,0.00,WeatherDisplay:10.37,2013-07-21 03:07:00,
2013-07-20 20:12:00,88.4,57.3,29.81,SSW,193,13.8,13.8,35,0.00,CLR,,0.00,WeatherDisplay:10.37,2013-07-21 03:12:00,
2013-07-20 20:17:00,88.1,57.0,29.81,SSW,193,13.8,13.8,35,0.00,CLR,,0.00,WeatherDisplay:10.37,2013-07-21 03:17:00,
2013-07-20 20:23:00,87.7,56.7,29.81,SSW,193,12.7,12.7,35,0.00,CLR,,0.00,WeatherDisplay:10.37,2013-07-21 03:23:00,
2013-07-20 20:28:00,87.3,57.8,29.81,SSW,192,17.3,17.3,37,0.00,CLR,,0.00,WeatherDisplay:10.37,2013-07-21 03:28:00,
2013-07-20 20:33:00,87.1,57.7,29.81,SSW,193,11.5,11.5,37,0.00,CLR,,0.00,WeatherDisplay:10.37,2013-07-21 03:33:00,
2013-07-20 20:38:00,86.9,57.5,29.81,SSW,193,15.0,15.0,37,0.00,CLR,,0.00,WeatherDisplay:10.37,2013-07-21 03:38:00,
2013-07-20 20:43:00,86.5,57.9,29.81,SSW,193,15.0,15.0,38,0.00,CLR,,0.00,WeatherDisplay:10.37,2013-07-21 03:43:00,
2013-07-20 20:48:00,86.0,58.2,29.81,SSW,192,11.5,11.5,39,0.00,CLR,,0.00,WeatherDisplay:10.37,2013-07-21 03:48:00,
2013-07-20 20:53:00,85.5,58.4,29.81,SSW,193,12.7,12.7,40,0.00,CLR,,0.00,WeatherDisplay:10.37,2013-07-21 03:53:00,
2013-07-20 20:58:00,85.1,58.8,29.81,SSW,193,12.7,12.7,41,0.00,CLR,,0.00,WeatherDisplay:10.37,2013-07-21 03:58:00,
2013-07-20 21:01:00,85.0,58.7,29.81,SSW,192,15.0,15.0,41,0.00,CLR,,0.00,WeatherDisplay:10.37,2013-07-21 04:01:00,
2013-07-20 21:02:00,84.9,58.6,29.81,SSW,192,13.8,13.8,41,0.00,CLR,,0.00,WeatherDisplay:10.37,2013-07-21 04:02:00,
2013-07-20 21:03:00,84.9,58.6,29.81,SSW,192,13.8,13.8,41,0.00,CLR,,0.00,WeatherDisplay:10.37,2013-07-21 04:03:00,
2013-07-20 21:08:00,84.7,58.4,29.82,SSW,192,11.5,11.5,41,0.00,CLR,,0.00,WeatherDisplay:10.37,2013-07-21 04:08:00,
2013-07-20 21:09:00,84.7,59.1,29.82,SSW,192,11.5,11.5,42,0.00,CLR,,0.00,WeatherDisplay:10.37,2013-07-21 04:09:00,
2013-07-20 21:14:00,84.5,58.9,29.82,SSW,192,11.5,11.5,42,0.00,CLR,,0.00,WeatherDisplay:10.37,2013-07-21 04:14:00,
2013-07-20 21:19:00,84.1,58.5,29.82,SSW,193,13.8,13.8,42,0.00,CLR,,0.00,WeatherDisplay:10.37,2013-07-21 04:19:00,
2013-07-20 21:24:00,83.8,58.9,29.83,SSW,193,10.4,10.4,43,0.00,CLR,,0.00,WeatherDisplay:10.37,2013-07-21 04:24:00,
2013-07-20 21:29:00,83.7,58.8,29.83,SSW,193,17.0,17.0,43,0.00,CLR,,0.00,WeatherDisplay:10.37,2013-07-21 04:29:00,
2013-07-20 21:34:00,83.5,58.6,29.83,SSW,192,10.4,10.4,43,0.00,CLR,,0.00,WeatherDisplay:10.37,2013-07-21 04:34:00,
2013-07-20 21:39:00,83.2,59.0,29.83,SSW,193,16.1,16.1,44,0.00,CLR,,0.00,WeatherDisplay:10.37,2013-07-21 04:39:00,
2013-07-20 21:44:00,82.9,59.4,29.83,SSW,193,12.7,12.7,45,0.00,CLR,,0.00,WeatherDisplay:10.37,2013-07-21 04:44:00,
2013-07-20 21:49:00,82.5,59.0,29.83,SSW,192,15.0,15.0,45,0.00,CLR,,0.00,WeatherDisplay:10.37,2013-07-21 04:49:00,
2013-07-20 21:54:00,82.2,59.4,29.84,SSW,193,12.7,12.7,46,0.00,CLR,,0.00,WeatherDisplay:10.37,2013-07-21 04:54:00,
2013-07-20 21:59:00,82.1,59.3,29.84,SSW,193,12.7,12.7,46,0.00,CLR,,0.00,WeatherDisplay:10.37,2013-07-21 04:59:00,
2013-07-20 22:04:00,82.1,58.7,29.83,SSW,192,17.3,17.3,45,0.00,CLR,,0.00,WeatherDisplay:10.37,2013-07-21 05:04:00,
2013-07-20 22:09:00,82.0,58.6,29.83,SSW,193,15.0,15.0,45,0.00,CLR,,0.00,WeatherDisplay:10.37,2013-07-21 05:09:00,
2013-07-20 22:14:00,82.0,58.6,29.83,SSW,193,11.5,11.5,45,0.00,CLR,,0.00,WeatherDisplay:10.37,2013-07-21 05:14:00,
2013-07-20 22:19:00,81.9,58.5,29.84,SSW,192,15.0,15.0,45,0.00,CLR,,0.00,WeatherDisplay:10.37,2013-07-21 05:19:00,
2013-07-20 22:24:00,82.0,57.9,29.84,SSW,192,13.8,13.8,44,0.00,CLR,,0.00,WeatherDisplay:10.37,2013-07-21 05:24:00,
2013-07-20 22:29:00,82.1,57.4,29.84,SSW,193,12.7,12.7,43,0.00,CLR,,0.00,WeatherDisplay:10.37,2013-07-21 05:29:00,
2013-07-20 22:34:00,82.3,57.6,29.84,SSW,193,13.8,13.8,43,0.00,CLR,,0.00,WeatherDisplay:10.37,2013-07-21 05:34:00,
2013-07-20 22:39:00,82.3,56.9,29.84,SSW,193,9.2,9.2,42,0.00,CLR,,0.00,WeatherDisplay:10.37,2013-07-21 05:39:00,
2013-07-20 22:44:00,82.3,56.9,29.84,SSW,192,6.9,6.9,42,0.00,CLR,,0.00,WeatherDisplay:10.37,2013-07-21 05:44:00,
2013-07-20 22:49:00,82.3,56.9,29.84,SSW,193,5.0,5.0,42,0.00,CLR,,0.00,WeatherDisplay:10.37,2013-07-21 05:49:00,
2013-07-20 22:54:00,82.4,56.3,29.84,SSW,193,6.9,6.9,41,0.00,CLR,,0.00,WeatherDisplay:10.37,2013-07-21 05:54:00,
2013-07-20 22:59:00,82.5,56.4,29.84,SSW,192,5.0,5.0,41,0.00,CLR,,0.00,WeatherDisplay:10.37,2013-07-21 05:59:00,
2013-07-20 23:04:00,82.5,56.4,29.84,SSW,192,4.6,4.6,41,0.00,CLR,,0.00,WeatherDisplay:10.37,2013-07-21 06:04:00,
2013-07-20 23:09:00,82.4,56.3,29.85,SSW,192,3.5,3.5,41,0.00,CLR,,0.00,WeatherDisplay:10.37,2013-07-21 06:09:00,
2013-07-20 23:14:00,82.2,56.2,29.84,SSW,193,3.5,3.5,41,0.00,CLR,,0.00,WeatherDisplay:10.37,2013-07-21 06:14:00,
2013-07-20 23:19:00,82.0,56.0,29.84,SSW,193,5.8,5.8,41,0.00,CLR,,0.00,WeatherDisplay:10.37,2013-07-21 06:19:00,
2013-07-20 23:24:00,82.1,56.1,29.84,SSW,192,10.4,10.4,41,0.00,CLR,,0.00,WeatherDisplay:10.37,2013-07-21 06:24:00,
2013-07-20 23:29:00,82.2,56.2,29.84,SSW,193,10.4,10.4,41,0.00,CLR,,0.00,WeatherDisplay:10.37,2013-07-21 06:29:00,
2013-07-20 23:34:00,82.2,56.2,29.84,SSW,192,11.0,11.0,41,0.00,CLR,,0.00,WeatherDisplay:10.37,2013-07-21 06:34:00,
2013-07-20 23:39:00,82.2,56.2,29.84,SSW,193,12.0,12.0,41,0.00,CLR,,0.00,WeatherDisplay:10.37,2013-07-21 06:39:00,
2013-07-20 23:44:00,82.2,56.2,29.84,SSW,193,13.8,13.8,41,0.00,CLR,,0.00,WeatherDisplay:10.37,2013-07-21 06:44:00,
2013-07-20 23:49:00,82.1,56.1,29.84,SSW,193,11.0,11.0,41,0.00,CLR,,0.00,WeatherDisplay:10.37,2013-07-21 06:49:00,
2013-07-20 23:54:00,82.0,56.6,29.84,SSW,192,11.5,11.5,42,0.00,CLR,,0.00,WeatherDisplay:10.37,2013-07-21 06:54:00,
2013-07-20 23:59:00,82.1,56.7,29.83,SSW,192,15.0,15.0,42,0.00,CLR,,0.00,WeatherDisplay:10.37,2013-07-21 06:59:00,